Theta_e
286 287 287 288 288 288 288 289 290 290 290 291 291 290 291 291 292 292 292 292 293 293 293 293 293 294 295 295 296 296 296 296 296 296 296 297 297 296 296 296 295 295 294 294 294 294 293 293 293 292 292 291 290 290 290 290 290 290 289 289 289 289
285 286 286 287 287 288 288 289 289 288 289 289 290 290 291 291 291 291 290 291 292 292 292 292 292 293 293 293 294 294 295 295 296 296 295 296 296 295 295 295 294 294 294 294 293 293 293 292 292 292 291 291 290 290 289 289 289 289 288 288 289 289
285 285 286 287 287 288 288 288 288 288 289 288 289 289 289 289 290 290 290 291 291 290 290 290 290 291 292 292 292 292 293 294 294 294 295 295 294 295 294 294 294 294 294 293 293 293 292 292 291 291 291 290 289 289 289 289 288 288 288 288 288 288
285 285 286 287 287 287 287 288 288 288 288 288 288 288 289 288 289 289 289 289 290 290 289 289 289 289 290 290 291 291 291 292 292 293 294 293 294 294 294 293 294 294 294 293 293 292 292 292 292 291 290 290 289 288 289 288 288 287 287 287 286 287
286 286 286 286 287 287 288 288 288 288 288 288 288 288 288 289 289 289 289 289 289 289 289 289 289 289 289 289 290 289 290 290 291 292 292 292 293 293 293 293 293 293 293 293 292 292 292 292 291 291 290 289 289 288 288 288 287 287 286 286 286 286
287 287 286 286 286 287 287 288 288 288 288 288 288 288 288 288 289 289 289 289 288 289 288 288 288 288 288 288 289 288 289 290 290 291 291 291 292 292 293 293 292 292 292 291 291 291 291 291 291 291 290 289 289 288 288 287 287 287 286 286 286 286
286 286 286 286 286 286 287 287 287 287 288 287 287 287 288 288 288 288 288 289 288 288 288 287 287 287 287 287 288 288 288 289 289 290 289 290 290 290 291 292 292 291 291 291 291 291 291 291 291 290 290 289 289 288 288 288 287 287 286 286 286 285
286 286 286 286 286 286 286 287 287 287 287 287 288 287 288 288 288 288 288 288 288 287 287 287 287 287 287 287 287 287 287 287 288 289 289 289 289 289 289 290 290 291 290 290 290 290 290 291 290 290 289 289 289 288 287 287 286 286 286 285 285 285
285 285 286 286 285 285 286 286 286 286 286 286 287 287 287 288 288 287 287 287 287 287 286 286 286 286 286 286 287 287 287 287 287 287 287 288 288 288 288 288 289 289 289 288 289 289 289 288 288 288 288 288 288 287 286 286 285 285 285 285 285 285
285 285 286 286 286 286 286 286 286 286 286 286 286 287 287 288 287 287 286 286 286 286 286 286 286 286 286 286 286 287 287 287 287 287 287 287 287 287 288 288 288 289 288 288 288 288 288 288 288 288 288 288 287 287 286 286 285 285 284 284 284 284
285 285 285 286 286 285 285 286 286 286 286 286 286 286 286 287 286 286 286 286 285 286 286 286 286 286 286 286 286 286 286 286 286 286 287 287 287 288 287 288 288 288 288 289 289 289 289 289 288 289 288 288 287 288 287 286 285 285 285 284 284 284
286 286 286 285 285 285 285 285 286 286 286 286 286 286 286 286 285 286 285 285 285 286 286 286 286 286 286 285 285 285 285 286 286 286 286 286 286 287 287 287 287 287 287 287 288 288 288 288 289 288 288 288 287 287 287 287 286 286 285 285 284 284
286 286 286 285 285 285 285 286 286 286 286 286 286 286 286 286 285 285 285 285 285 286 286 286 285 285 285 285 285 285 285 285 285 285 285 285 285 285 286 286 286 286 287 287 287 287 288 288 288 288 289 290 290 288 287 286 286 286 285 285 284 284
286 286 286 286 286 286 285 286 286 286 285 286 286 286 286 285 285 285 285 285 285 285 285 285 285 285 284 285 284 284 284 285 284 284 285 285 285 285 286 285 285 286 286 286 286 286 287 287 287 289 289 290 290 289 287 286 286 285 286 285 285 284
286 286 286 287 287 286 286 286 285 285 286 285 286 286 285 285 285 285 284 285 284 284 285 285 284 284 284 284 284 284 284 284 284 284 284 284 285 285 285 285 285 285 286 286 285 285 286 286 288 289 289 290 290 290 289 287 286 285 285 285 285 284
286 286 287 287 287 287 287 286 285 286 286 286 286 285 285 285 284 284 284 284 284 284 284 284 284 283 283 283 283 283 283 283 283 284 284 284 285 284 284 285 285 285 285 285 285 285 285 286 287 288 288 289 289 289 289 287 286 285 285 285 285 284
285 286 286 287 287 287 286 286 286 286 285 285 285 285 284 284 284 283 283 283 283 283 283 283 283 282 282 282 282 282 282 282 283 283 283 283 283 283 283 283 284 284 285 285 285 285 285 286 287 287 287 288 288 289 289 287 287 286 285 285 285 285
285 286 286 287 287 286 286 285 285 284 284 285 284 284 284 283 283 282 283 282 282 282 282 282 282 282 281 281 280 280 280 281 281 282 283 283 283 283 283 284 284 284 284 285 285 284 284 286 287 287 287 287 288 288 287 287 287 286 286 285 285 285
286 287 287 287 287 286 285 285 284 283 283 283 283 283 283 282 282 282 282 281 282 282 282 282 281 281 280 280 279 279 279 279 280 281 282 281 281 282 282 282 282 283 283 283 283 283 284 285 286 287 287 287 287 287 286 286 286 286 286 285 285 285
287 287 286 285 285 285 284 283 283 282 281 281 282 281 281 281 281 281 281 281 281 281 281 281 281 280 279 279 278 277 278 278 279 279 280 279 280 280 281 281 281 282 283 282 282 283 283 283 284 285 286 287 287 286 286 286 286 285 285 285 285 285
284 283 283 282 281 282 282 281 281 280 280 280 280 280 280 280 280 280 280 280 281 281 281 280 280 279 278 277 277 277 277 277 277 278 278 278 279 280 281 281 281 281 281 282 282 282 282 282 283 284 285 286 286 286 285 285 285 284 285 285 284 284
280 280 280 279 279 280 280 280 279 278 278 278 279 278 278 279 279 280 280 280 280 279 279 279 278 277 276 276 276 276 276 276 276 276 276 277 277 278 279 279 280 279 280 281 281 281 282 282 282 283 284 285 285 286 285 285 284 283 284 285 284 283
279 278 278 278 279 279 279 278 277 276 277 277 276 276 277 278 279 278 278 278 278 278 278 277 276 275 275 275 274 274 274 275 274 274 274 274 274 275 276 276 277 277 278 279 281 281 281 281 281 282 283 284 285 285 285 284 284 284 284 284 284 283
277 277 277 278 278 277 277 276 275 274 274 274 273 274 276 276 276 276 275 275 275 275 275 274 274 274 273 273 273 272 272 273 273 273 272 273 273 272 273 273 275 276 277 279 280 280 280 281 282 281 282 283 283 284 285 284 284 285 284 283 283 283
275 275 275 275 275 275 274 273 272 272 272 271 272 273 273 273 273 273 273 273 272 272 272 272 272 272 272 271 271 271 270 271 271 271 271 271 271 271 271 273 274 275 276 278 279 280 280 281 281 282 281 282 283 283 284 285 285 286 285 284 283 283
273 272 272 272 272 272 272 271 269 269 269 269 271 271 271 271 271 271 269 269 269 270 270 270 270 270 270 270 270 269 268 268 269 269 269 269 270 270 270 272 273 274 275 276 277 278 280 281 281 281 281 281 282 283 283 284 285 285 284 284 283 283
269 269 269 270 269 269 269 268 267 267 266 267 268 268 267 267 266 265 265 265 266 266 267 267 268 268 268 268 268 267 267 267 267 267 268 268 268 269 269 270 272 273 274 276 276 277 279 280 281 281 281 281 281 282 283 283 284 285 285 284 284 284
267 267 266 266 267 266 266 265 264 262 263 264 264 264 264 263 262 262 262 262 263 263 264 264 264 265 266 266 266 266 266 266 266 266 266 267 267 268 268 269 271 272 273 274 276 277 277 279 280 280 280 280 280 280 281 282 283 283 284 284 284 284
264 263 263 262 263 263 263 262 262 261 262 261 261 261 261 260 260 259 260 260 261 261 262 262 262 263 263 264 264 265 265 265 265 265 266 266 266 267 268 269 270 271 272 273 275 276 277 277 278 279 279 279 279 278 279 279 280 282 283 282 282 283
261 260 260 260 261 261 260 260 260 260 260 260 260 260 259 259 258 258 258 258 259 259 260 260 261 261 262 262 263 263 263 264 265 264 264 265 266 266 267 268 269 270 271 272 274 275 276 276 277 278 278 279 279 278 278 278 278 279 279 280 281 282
259 259 258 258 260 260 259 259 259 260 260 260 260 259 258 258 258 258 258 258 258 258 259 260 260 260 260 261 261 262 263 263 263 263 264 265 267 267 266 267 268 269 270 271 271 272 273 274 275 277 280 279 280 278 277 277 277 278 278 280 282 281
258 258 258 258 259 259 259 258 259 259 259 259 259 259 258 257 257 257 257 258 258 258 259 259 259 259 260 260 260 260 261 264 267 266 264 264 268 270 272 272 269 270 271 271 272 274 273 274 276 279 280 281 281 281 281 280 280 280 279 280 282 281
258 258 257 258 258 258 258 258 258 258 259 259 259 258 258 257 257 257 257 257 257 258 258 258 258 259 259 259 259 259 259 260 261 266 268 269 269 269 271 272 273 273 274 271 269 272 276 277 278 279 279 280 281 282 282 282 281 281 281 281 280 279
257 257 257 258 258 257 257 257 257 258 258 258 258 258 257 257 257 256 256 257 257 258 258 258 258 258 258 258 259 259 259 259 259 260 265 267 268 269 270 271 272 273 273 274 274 272 272 275 277 278 278 279 280 281 282 282 282 282 282 282 282 278
257 257 257 257 257 257 257 257 257 258 258 258 257 257 256 256 256 256 256 256 257 257 258 258 258 258 258 258 258 258 259 258 258 258 259 262 266 268 269 270 271 272 273 274 275 276 276 276 276 277 278 279 280 281 282 282 283 283 283 282 280 278
257 257 257 257 257 256 256 256 257 257 257 257 257 256 256 256 256 256 256 256 256 256 257 257 257 258 258 258 259 259 259 259 259 259 259 259 260 261 264 268 269 271 272 273 275 275 276 277 277 278 279 279 280 281 281 282 281 282 283 282 279 278
256 256 256 256 256 256 256 256 256 257 257 256 256 256 255 255 255 256 256 256 257 257 257 257 257 258 258 258 258 259 259 259 259 260 259 258 258 259 259 261 263 267 270 267 269 271 273 275 277 278 278 279 280 281 282 283 280 278 278 279 279 279
256 256 256 256 256 256 255 255 256 257 256 256 256 255 255 255 255 255 256 256 256 256 257 257 257 258 257 257 258 258 259 259 259 258 259 259 260 260 260 261 262 263 267 270 271 272 273 274 274 275 277 278 279 280 282 278 277 277 277 277 278 278
Wind_Speed
10 11 12 11 10 9 8 10 11 12 13 14 14 15 14 13 12 12 12 13 9 8 9 10 9 9 8 8 8 9 9 8 7 8 8 7 7 7 7 8 9 9 9 10 11 11 12 12 12 12 12 12 12 12 12 12 12 12 13 12 11 11
8 8 9 10 10 11 10 11 11 14 12 13 13 13 12 12 12 11 12 11 11 11 11 11 10 10 9 9 8 9 10 9 8 8 8 9 7 7 8 8 9 10 10 10 11 11 11 12 12 12 12 12 13 12 12 13 14 15 15 13 12 10
4 5 5 5 6 6 8 9 9 9 9 10 10 11 11 12 11 10 8 8 10 11 12 11 11 12 10 10 9 8 9 9 9 8 8 7 7 8 8 9 10 10 10 11 11 12 11 12 12 12 12 12 13 13 13 13 14 16 14 13 14 13
2 2 2 2 2 3 4 4 5 8 9 7 7 7 7 7 8 8 9 9 9 10 10 11 10 9 10 11 9 9 9 9 9 9 8 9 9 8 9 10 9 9 10 10 11 11 12 12 12 12 12 14 14 14 11 13 14 15 15 13 14 14
3 4 4 5 5 6 6 6 6 7 7 7 6 7 7 7 7 7 6 7 9 10 9 9 8 9 10 10 10 11 11 10 9 9 9 9 10 9 9 9 10 10 10 11 11 11 12 12 12 12 12 13 15 15 14 13 15 16 16 15 15 14
5 5 6 7 7 8 9 8 8 7 8 9 9 11 11 10 10 9 9 8 8 8 7 7 7 9 10 10 9 12 12 11 10 9 9 9 9 10 10 9 10 10 10 11 11 12 12 12 12 12 13 15 15 15 15 14 15 15 16 16 15 14
7 7 7 8 8 8 8 9 10 10 10 10 10 10 9 9 8 7 7 7 8 8 8 9 9 11 12 12 10 11 11 11 10 9 10 9 10 10 10 10 8 9 10 10 11 12 13 13 13 14 14 13 13 14 14 13 14 15 15 15 15 15
7 7 8 7 7 8 8 8 8 8 8 8 8 8 8 8 8 7 8 8 9 10 12 11 12 12 12 11 10 10 9 8 9 9 8 8 9 10 10 11 10 8 10 11 11 12 13 13 13 14 14 14 14 13 13 12 12 13 14 13 12 12
6 6 6 6 6 6 5 6 6 6 6 7 6 6 6 7 7 8 7 8 8 8 9 9 9 9 9 9 9 9 9 8 8 8 8 8 8 9 9 9 10 8 8 9 10 11 11 11 10 10 10 11 11 11 11 11 11 11 10 12 15 14
5 5 6 6 6 6 6 5 6 6 7 8 7 7 7 5 6 6 5 6 6 6 7 7 7 8 7 8 8 8 9 9 9 9 8 7 7 7 8 9 10 9 8 9 10 10 10 12 12 12 13 12 12 12 12 12 11 11 10 11 13 14
5 6 6 6 6 7 7 6 6 6 7 6 7 7 7 7 7 8 7 7 6 6 6 6 6 7 8 8 8 8 9 9 9 9 8 8 8 6 7 7 8 9 11 10 10 11 11 11 11 9 9 11 14 14 14 13 13 13 12 13 14 14
7 7 7 7 8 8 8 8 8 7 8 8 8 8 8 9 9 9 9 8 8 7 7 7 7 7 8 9 9 9 9 9 9 9 8 8 8 8 8 8 7 8 9 10 11 10 9 10 9 11 15 15 10 11 11 12 13 14 14 13 13 14
7 7 8 8 9 9 9 8 9 9 9 8 8 8 8 8 9 9 9 9 9 9 9 8 8 7 8 8 8 7 7 7 7 7 7 6 6 8 9 8 8 8 8 9 10 11 11 9 8 14 15 15 20 15 9 9 9 12 15 15 14 13
8 8 9 9 9 9 8 8 8 9 9 10 11 10 10 10 10 10 10 10 9 9 9 8 9 8 9 7 7 7 7 7 7 8 7 7 8 6 5 7 7 7 7 7 8 10 10 10 11 15 13 16 17 19 12 12 10 10 13 14 15 13
8 9 9 9 8 8 8 8 8 8 9 10 10 10 10 11 10 11 11 11 10 10 10 9 8 8 8 8 9 9 7 7 7 8 8 8 7 7 7 7 7 7 8 7 9 9 9 10 12 13 15 15 18 19 19 11 13 13 13 14 14 14
8 8 9 10 10 10 9 8 9 9 9 9 9 9 9 9 10 10 10 10 9 11 11 10 9 9 9 8 8 9 9 10 10 9 9 9 8 8 8 8 9 8 7 8 8 9 8 9 11 15 17 16 18 20 18 13 15 14 14 14 13 11
9 9 9 10 10 9 8 8 8 8 9 9 9 9 9 8 9 10 10 9 9 10 9 9 9 9 9 9 9 10 10 10 10 10 9 9 9 9 9 9 10 9 8 8 8 8 9 8 13 15 17 18 19 21 20 14 13 11 11 13 14 13
10 10 10 9 8 8 8 9 8 8 9 9 9 8 7 8 8 9 10 9 9 9 10 9 9 9 9 9 10 9 10 11 10 11 10 9 9 9 9 9 8 10 10 9 9 10 11 11 13 15 17 19 19 21 13 13 12 12 13 12 14 13
10 11 9 8 8 8 7 6 7 8 9 9 7 7 7 8 8 9 10 10 11 9 9 9 9 9 9 10 10 11 12 12 12 11 9 10 11 11 10 10 10 10 10 10 10 11 12 11 12 15 17 17 19 15 11 11 12 12 11 12 12 12
8 9 10 11 10 9 7 7 8 9 10 10 10 9 9 9 11 12 11 11 10 11 11 9 8 8 9 9 10 11 12 12 12 12 10 10 11 12 12 11 11 11 10 11 12 10 11 12 13 16 17 18 18 14 10 11 13 14 16 12 11 10
11 11 11 10 11 11 11 11 9 9 10 10 11 10 11 11 12 12 12 12 12 12 10 8 7 8 8 9 10 10 12 13 12 12 11 11 11 13 12 11 11 11 11 11 13 14 14 12 13 15 18 19 18 14 9 11 12 14 14 14 9 11
11 12 13 13 14 13 12 10 9 11 13 13 13 12 13 14 13 13 12 12 13 11 9 7 6 8 9 10 11 11 12 12 12 11 11 12 12 12 13 12 11 13 12 12 12 12 11 12 12 13 18 18 19 19 12 8 11 14 15 14 12 9
11 12 14 14 14 13 12 10 10 13 13 14 14 15 15 15 14 14 13 13 12 11 9 8 9 10 11 10 11 11 11 11 12 12 12 13 13 13 13 15 14 15 15 13 11 11 12 11 12 14 17 18 19 20 18 10 12 12 14 12 13 9
12 14 15 15 14 13 11 12 13 14 15 14 16 16 16 16 16 16 14 14 13 10 9 10 9 10 10 12 11 11 12 11 11 11 13 12 13 15 17 16 15 14 14 13 13 14 15 11 14 12 14 19 21 21 22 14 13 13 10 11 15 9
13 13 14 14 14 13 12 13 15 15 15 16 19 17 17 16 16 16 14 14 15 14 15 14 14 13 11 11 11 12 13 13 12 12 13 14 15 16 18 18 16 15 14 14 13 12 11 11 9 17 14 18 21 23 23 25 19 19 13 12 13 12
13 14 15 15 12 12 12 12 14 15 17 19 18 17 17 16 16 16 16 15 16 17 16 16 16 15 11 11 12 12 13 14 13 13 13 13 13 14 15 14 14 14 15 15 14 13 13 11 10 12 18 17 21 22 24 25 26 25 15 13 11 9
15 16 18 17 15 13 13 12 13 17 18 17 16 17 17 17 18 18 18 18 18 17 17 17 16 15 13 12 13 14 15 15 14 14 13 13 14 14 15 15 14 14 14 14 14 13 12 11 10 8 11 19 21 24 24 25 26 25 27 18 14 13
13 14 16 18 16 14 13 12 13 17 18 17 16 17 16 17 17 18 19 19 18 18 19 20 19 18 17 17 15 15 15 16 16 15 15 14 15 15 15 16 15 15 15 15 14 14 13 12 11 9 8 9 16 18 23 26 25 25 26 26 18 17
14 16 17 19 17 14 14 15 13 13 14 15 16 16 17 18 19 20 20 20 19 18 18 19 17 17 17 16 15 15 15 15 15 15 16 15 16 15 15 15 15 15 15 15 14 14 13 12 12 11 9 8 9 10 11 13 16 22 24 19 16 17
14 16 17 17 16 15 15 14 15 15 15 15 15 16 19 19 19 19 20 21 19 18 17 17 22 22 17 16 15 15 15 14 14 15 16 15 15 15 16 15 15 15 14 14 13 13 13 13 12 12 11 9 8 7 7 9 10 10 10 12 13 12
15 16 16 17 16 15 15 17 17 15 18 18 18 17 17 20 22 20 21 19 18 18 17 16 16 16 16 16 16 15 15 15 15 15 17 17 14 15 15 15 17 17 16 15 15 16 16 14 14 13 12 10 10 10 9 9 10 10 10 14 18 11
14 16 18 17 15 15 18 18 18 18 17 18 15 16 19 19 19 19 18 16 17 17 17 16 16 16 16 16 16 17 17 20 25 21 18 18 22 28 29 26 20 18 16 16 16 15 16 16 15 17 21 22 21 20 22 20 19 17 14 15 21 15
15 17 19 18 18 18 16 19 19 18 18 14 16 17 17 17 17 17 17 16 16 16 17 17 17 17 16 16 17 17 18 17 17 24 30 30 30 30 32 33 36 38 37 27 22 23 34 35 36 36 34 33 31 28 26 25 24 25 24 23 15 14
16 17 19 20 17 18 19 16 16 15 14 14 15 15 16 17 17 17 16 16 16 18 18 16 17 18 17 17 16 17 17 17 18 17 20 26 27 28 29 30 32 34 33 35 33 27 21 29 35 36 35 34 33 31 29 28 28 27 27 24 24 14
16 16 18 17 18 17 16 15 17 16 15 16 16 16 16 17 17 18 18 17 17 17 17 17 16 17 16 17 17 17 16 17 17 18 17 14 21 26 27 28 31 32 31 32 32 34 31 31 31 33 32 31 30 30 30 29 30 28 27 26 19 13
16 16 16 16 17 19 18 17 17 15 15 15 15 15 16 17 17 18 17 16 17 17 16 16 16 16 16 16 16 16 16 16 17 18 17 17 15 15 19 24 27 28 29 29 30 30 30 31 32 31 32 31 31 31 31 29 23 26 27 23 16 15
15 15 15 17 18 16 17 18 17 16 15 14 15 15 15 16 17 16 19 26 21 15 15 15 15 15 16 16 15 16 16 16 16 16 18 17 18 17 16 14 14 19 25 23 24 29 31 29 26 26 27 30 30 30 30 30 19 18 16 16 15 15
13 14 14 14 13 14 17 18 16 14 13 14 14 14 15 16 16 16 15 15 17 16 15 15 15 15 15 15 16 15 16 16 17 17 17 16 17 17 16 15 14 14 16 26 26 27 28 30 32 31 28 25 27 27 28 17 15 14 12 13 14 13
Wind_Direction
18 20 19 19 18 14 13 11 15 17 21 23 29 29 27 24 21 20 18 18 16 7 1 350 337 326 315 305 296 288 273 263 250 248 251 251 237 231 228 221 222 217 214 215 220 217 214 213 212 207 208 206 213 211 213 208 203 207 214 212 205 210
17 15 15 13 13 12 10 12 16 20 19 19 18 21 24 25 25 19 18 14 16 14 15 9 0 351 340 333 323 308 295 285 276 262 252 250 248 233 226 225 221 219 218 216 219 219 217 214 214 209 209 207 215 214 213 211 201 209 213 210 204 201
359 360 356 2 17 21 21 22 21 17 17 18 19 20 13 17 15 14 15 10 13 14 15 10 7 0 352 348 338 321 310 304 296 286 273 268 250 241 234 229 227 224 222 221 218 219 218 214 213 210 208 212 216 216 217 215 209 211 216 210 208 202
303 264 253 269 333 8 9 3 14 22 23 16 12 16 21 12 10 5 0 6 14 19 14 10 5 359 359 359 359 346 335 324 316 308 297 280 271 252 242 237 232 227 228 225 225 221 221 219 215 212 210 216 218 218 214 214 212 213 219 214 216 204
327 326 341 354 9 10 12 15 20 19 17 17 15 18 18 17 12 12 7 7 10 10 10 9 6 1 4 9 11 4 353 343 331 322 307 295 286 270 253 243 237 230 229 230 229 227 226 223 219 215 213 217 218 218 215 210 212 212 212 212 214 207
347 359 4 6 9 7 9 9 8 10 13 13 9 12 9 9 7 4 6 4 6 8 5 6 2 8 10 11 9 6 1 354 347 334 322 308 294 286 277 255 241 238 232 233 232 230 229 226 225 222 219 220 219 220 221 217 215 215 214 214 214 208
8 7 6 6 3 5 2 2 3 2 3 5 6 2 359 0 358 356 357 356 358 1 3 2 3 6 8 8 1 358 355 356 355 346 333 325 312 299 290 281 261 246 243 237 234 233 233 230 226 226 224 223 223 225 225 224 221 222 222 220 216 211
348 352 356 353 355 355 354 353 356 354 351 354 355 350 349 347 351 349 351 353 355 357 1 1 0 1 358 355 354 353 346 337 342 343 339 334 319 307 299 292 283 260 253 247 240 238 238 234 230 228 227 226 226 226 227 228 225 225 225 223 224 217
334 336 332 334 332 335 337 338 339 339 337 334 339 340 335 338 340 343 347 349 351 350 355 354 353 350 349 347 342 338 339 339 334 332 332 332 324 314 302 291 282 267 255 247 241 241 237 234 229 227 226 223 223 222 223 224 225 227 228 226 229 228
299 311 317 319 325 324 326 328 328 331 330 330 330 333 333 325 326 322 328 330 336 341 343 344 337 339 338 336 336 335 337 337 337 336 329 322 319 317 314 306 299 288 269 256 250 242 237 238 236 230 231 228 225 224 226 226 223 227 229 230 227 227
309 311 314 314 316 322 323 324 325 328 327 320 321 325 329 329 325 325 327 328 330 331 334 331 331 328 334 329 332 333 335 335 332 328 325 324 324 315 309 306 302 298 290 278 259 252 246 242 239 230 222 224 227 227 228 226 225 229 233 232 230 227
303 309 312 314 319 323 323 322 324 324 321 319 322 325 328 333 328 324 324 326 326 326 326 326 326 329 328 329 328 330 328 326 324 323 320 316 316 317 314 311 302 293 289 286 280 266 251 249 247 238 233 232 230 223 224 225 226 227 231 232 231 228
282 288 296 303 312 314 317 315 317 321 319 320 321 321 326 326 321 319 319 319 322 322 320 320 321 321 322 316 320 316 319 317 316 313 310 310 311 314 315 314 308 302 297 293 289 281 270 254 242 250 241 233 231 233 223 219 226 224 229 231 231 229
277 279 282 286 290 297 300 305 308 311 314 318 321 322 325 325 321 319 316 316 318 318 314 313 315 315 312 314 307 309 307 308 305 305 303 303 309 303 301 293 290 296 291 285 280 277 273 271 262 254 244 235 231 231 233 235 232 227 229 231 231 233
270 269 268 267 265 268 276 287 292 294 301 306 308 314 313 311 311 310 312 314 316 315 310 306 306 305 306 307 312 309 303 293 294 296 301 301 300 299 294 293 290 283 281 275 275 274 270 273 270 265 247 237 234 231 231 238 236 234 234 232 229 228
265 261 260 262 265 265 269 268 267 265 267 266 263 267 270 281 292 298 301 304 306 308 308 306 307 305 306 308 306 307 304 305 300 298 299 297 298 299 297 294 288 283 277 272 269 269 267 261 262 263 257 245 236 234 230 237 239 239 238 233 226 224
269 267 263 257 253 254 257 257 251 255 255 253 253 252 264 270 278 284 287 290 291 295 299 299 300 302 305 307 308 308 305 300 299 297 296 296 293 294 292 296 297 293 287 279 274 277 270 264 260 261 260 257 248 240 232 235 234 234 235 235 231 227
263 265 265 259 252 247 246 254 262 267 265 266 263 262 259 261 263 268 275 278 282 286 291 294 295 296 300 302 302 298 297 294 292 294 296 293 291 286 283 280 281 279 283 279 279 281 275 269 253 249 253 253 251 251 245 243 238 236 236 235 231 225
270 270 273 275 268 268 273 290 295 285 281 279 275 273 272 269 262 261 264 265 268 271 273 277 281 287 293 299 299 298 299 298 296 294 297 294 290 287 286 284 281 279 278 276 270 266 267 268 254 248 253 250 249 248 246 244 244 241 232 233 230 224
300 318 317 309 304 306 314 320 312 301 291 286 287 285 282 277 274 276 272 269 269 267 266 265 264 270 278 286 290 294 298 297 296 294 295 291 291 288 282 281 282 278 276 276 279 267 271 272 268 262 254 252 247 239 237 244 249 250 246 235 222 224
331 322 316 311 311 317 325 324 313 299 293 291 291 286 279 276 278 277 276 277 278 275 269 263 256 261 268 272 277 281 287 289 290 292 294 290 287 282 284 282 281 283 278 275 277 280 273 270 270 261 258 253 249 242 234 240 248 253 252 248 230 227
328 324 321 317 312 316 319 321 313 301 297 295 296 291 286 288 287 283 286 287 284 279 271 261 252 257 261 267 274 278 279 280 282 282 285 288 288 288 286 283 279 280 277 272 271 272 265 264 265 262 255 253 249 243 238 232 240 248 253 250 248 231
320 314 312 308 311 317 321 323 316 306 304 304 302 294 301 304 301 302 298 292 287 279 271 268 271 270 270 270 275 276 275 273 276 280 282 284 284 282 281 282 281 277 272 267 260 258 261 255 258 263 256 254 251 246 240 236 235 241 249 252 250 237
312 312 310 312 319 325 329 333 323 315 313 312 305 308 313 309 308 305 300 295 289 278 273 276 273 270 272 277 277 275 275 273 273 277 283 282 281 283 283 280 276 271 268 266 261 261 263 249 237 256 258 255 254 249 241 238 238 233 238 243 251 235
317 315 313 317 324 330 333 334 322 316 316 309 310 316 312 311 310 307 303 298 294 290 287 284 281 280 279 277 276 276 276 279 280 277 278 276 274 271 274 275 274 271 268 267 264 258 249 249 240 246 252 252 251 249 245 241 242 240 236 239 244 240
323 320 316 316 321 329 331 332 319 313 311 308 316 316 314 315 317 316 310 303 297 295 291 289 288 284 278 279 280 277 277 276 277 278 274 275 273 275 272 271 270 268 266 265 265 259 252 244 240 235 239 247 247 248 247 245 244 243 240 238 241 235
322 318 314 313 322 329 326 328 321 314 311 315 323 319 319 317 315 311 304 301 299 296 295 294 291 288 285 284 283 281 279 277 276 276 273 270 270 268 268 267 266 265 265 265 262 264 262 255 242 230 230 238 246 247 246 246 245 246 246 245 245 235
318 313 311 312 322 329 325 329 329 316 309 313 313 311 309 308 307 301 298 297 293 292 295 293 290 286 282 282 278 275 274 274 274 273 274 271 266 263 262 264 264 262 262 261 260 260 261 257 251 237 224 224 239 244 244 243 244 246 246 245 246 240
322 317 318 312 319 325 319 318 312 303 305 307 307 306 305 303 302 299 296 295 295 295 293 289 288 288 286 280 275 270 268 265 264 264 265 264 263 263 262 261 262 261 260 259 259 261 262 262 257 251 234 211 228 228 232 236 241 243 247 249 248 249
318 314 315 310 313 314 310 306 305 304 303 300 300 302 303 299 297 296 295 295 295 293 293 290 287 286 285 282 277 274 272 267 263 265 262 260 259 262 265 266 264 264 262 264 264 266 266 263 260 253 243 228 215 220 218 221 223 226 227 237 241 240
313 309 306 302 304 302 301 302 302 301 302 302 305 303 298 297 297 295 294 294 294 293 294 291 289 288 287 285 282 275 272 271 271 269 269 263 261 261 264 266 268 266 267 268 268 269 269 267 263 256 257 258 220 210 216 213 222 220 219 225 230 234
308 303 300 297 299 303 304 300 300 299 297 300 297 298 296 296 296 295 294 293 292 293 292 291 290 289 287 285 285 285 280 271 268 267 267 270 264 264 265 265 265 266 269 270 266 264 265 266 267 275 273 272 268 247 227 222 222 218 217 222 227 228
303 303 301 303 307 304 300 298 297 296 296 295 297 296 292 293 294 293 293 292 290 290 291 290 289 287 285 284 283 281 281 283 273 266 266 265 268 267 264 263 262 263 263 262 267 266 264 266 270 271 270 270 267 265 255 244 232 228 228 227 227 228
306 305 303 305 302 299 299 293 293 294 296 297 297 297 295 294 294 294 294 294 292 291 289 287 286 285 284 283 281 280 281 281 283 279 267 267 269 269 270 268 266 265 264 262 261 263 265 263 262 263 264 265 263 260 256 254 251 245 238 231 224 224
303 300 300 298 296 293 291 290 293 298 300 303 303 300 297 294 293 293 293 293 291 290 289 288 287 285 284 283 281 279 278 279 281 282 287 274 270 274 274 274 272 270 269 268 267 263 262 261 261 261 262 261 261 257 253 250 249 248 243 235 227 221
299 295 293 290 291 296 297 294 295 300 299 300 299 297 295 293 291 290 290 291 291 291 290 289 286 285 283 281 280 280 280 278 278 280 282 288 290 283 278 275 275 275 273 270 270 269 265 261 262 265 264 261 257 254 252 247 243 243 242 235 226 224
292 292 290 291 293 292 294 293 295 298 297 297 295 293 289 290 290 289 287 286 287 287 287 287 286 285 284 283 281 280 279 279 281 282 284 285 286 285 284 284 279 276 277 281 286 284 283 281 275 267 264 262 259 254 248 244 237 234 233 233 226 223
287 287 289 291 291 292 296 294 295 298 297 296 295 290 290 291 289 288 286 286 287 284 283 282 282 282 282 282 282 281 280 281 280 279 278 278 277 277 277 275 270 272 276 278 280 281 280 274 272 275 273 265 259 256 252 241 222 218 212 223 228 225